Find Local Weather

World > North America > United States > North Carolina

Whitakers, North Carolina Regional Weather

Lat: 36.11N, Lon: 77.7W
Wx Zone: NCZ028
Warning FLW WEATHER ALERT - (More Info. Click Here) Warning
Feedback

Whitakers, NC Regional Weather

Expires:201905251000;;428363
ASUS42 KMHX 250913
RWRMHX
WEATHER ROUNDUP FOR EASTERN NORTH CAROLINA
NATIONAL WEATHER SERVICE NEWPORT/MOREHEAD CITY NC
500 AM EDT SAT MAY 25 2019

NOTE: "FAIR" INDICATES FEW OR NO CLOUDS BELOW 12,000 FEET
WITH NO SIGNIFICANT WEATHER AND/OR OBSTRUCTIONS TO VISIBILITY


NCZ011>013-027>030-043-044-078>080-089-090>093-098-251000-
COASTAL PLAIN
  
CITY           SKY/WX    TMP DP  RH WIND       PRES   REMARKS
AHOSKIE        FAIR      63  63 100 CALM      30.11R                  
CLINTON        FAIR      72  64  76 CALM      30.09R                  
ELIZABETHTOWN  FAIR      72  64  75 NE3       30.08R                  
GOLDSBORO      FAIR      66  62  87 CALM      30.09R                  
GREENVILLE     FAIR      68  61  77 CALM      30.11S                  
HAVELOCK       FAIR      71  59  65 NE3       30.09R                  
KENANSVILLE    FAIR      66  63  88 CALM      30.10R                  
KINSTON        FAIR      65  62  87 CALM      30.11R                  
NEW BERN       FAIR      68  61  78 CALM      30.09R                  
RICHLANDS      FAIR      68  61  78 NE5       30.09R                  
ROCKY MOUNT    CLOUDY    67  62  84 CALM      30.11R                  
WASHINGTON     FAIR      65  59  82 CALM      30.10R                  
WHITEVILLE     FAIR      72  67  87 CALM      30.06R                  

$$


SKY/WX - Weather  TMP - Temperature  DP - Dew Point  RH - Relative Humidity
WIND - Wind Direction/Speed PRES - Barometric Pressure VSB - Visibility
WCI - Wind Chill Index E13G22 Wind - East Wind 13 mph/Gusts of 22 mph